Location: Praha
(50.0833°N, 14.4667°E)
Time: 01:59:01
(UTC+01:00)

ISS - Visible Passes

Search period start: 21 November 2017 00:00
Search period end: 01 December 2017 00:00
Orbit: 402 x 407 km, 51.6° (Epoch: 21 November)

Date Brightness Start Highest point End Pass type
(mag) Time Alt. Az. Time Alt. Az. Time Alt. Az.
28 Nov -1.7 18:16:23 10° SSW 18:17:53 19° S 18:17:53 19° S visible
29 Nov -1.7 17:24:59 10° S 17:26:52 15° SE 17:27:47 13° ESE visible
29 Nov -1.0 18:59:37 10° WSW 19:00:27 17° SW 19:00:27 17° SW visible
30 Nov -3.0 18:07:26 10° SW 18:10:17 40° SSE 18:10:17 40° SSE visible
